Oceanside, CA

11:26 PM PDT on September 23, 2017 (GMT -0700)
Oceanside Municipal

Weather History for KOKB - March, 2013

Change the Weather History Date:

Sunday, March 3, 2013

  Actual Average Record
Temperature  
Mean Temperature 55 °F 55 °F  
Max Temperature 70 °F 65 °F 78 °F (2007)
Min Temperature 40 °F 45 °F 32 °F (2002)
Degree Days  
Heating Degree Days 10 10  
Month to date heating degree days 16 30  
Since 1 July heating degree days 1414 1438  
Cooling Degree Days 0 0  
Month to date cooling degree days 0 0  
Year to date cooling degree days 0 0  
Growing Degree Days 5 (Base 50)    
Moisture  
Dew Point 45 °F    
Average Humidity 58    
Maximum Humidity 76    
Minimum Humidity 39    
Precipitation  
Precipitation 0.00 in 0.15 in 0.16 in (2000)
Month to date precipitation 0.00 0.44  
Year to date precipitation 1.64 6.16  
Since 1 July precipitation 5.48  
Snow  
Snow 0.00 in - - ()
Month to date snowfall 0.0  
Year to date snowfall 0.0  
Snow Depth 0.00 in    
Sea Level Pressure  
Sea Level Pressure 30.04 in    
Wind  
Wind Speed 3 mph (SW)    
Max Wind Speed 10 mph    
Max Gust Speed 15 mph    
Visibility 10 miles    
Events      
T = Trace of Precipitation, MM = Missing Value Source: NWS Daily Summary

Daily Weather History Graph

Daily Weather History Graph

Search for Another Location

Airport or City:

Trip Planner

Search our weather history database for the weather conditions in past years. The results will help you decide how hot, cold, wet, or windy it might be!

Date:

Astronomy

Mar. 03, 2013 Rise Set
Actual Time 6:14 AM PST 5:48 PM PST
Civil Twilight 5:49 AM PST 6:13 PM PST
Nautical Twilight 5:21 AM PST 6:41 PM PST
Astronomical Twilight 4:52 AM PST 7:10 PM PST
Moon No Moon Rise 9:54 AM PST (3/3)
Length of Visible Light 12h 23m
Length of Day
11h 33m
Waning Gibbous, 62% of the Moon is Illuminated
Mar 3
Waning Gibbous
Mar 4
Last Quarter
Mar 11
New
Mar 19
First Quarter
Mar 27
Full

Hourly Weather History & Observations

Time (PST) Temp. Dew Point Humidity Pressure Visibility Wind Dir Wind Speed Gust Speed Precip Events Conditions
12:52 AM 43.0 °F 36.0 °F 76% 30.11 in 10.0 mi Calm Calm - N/A   Clear
1:52 AM 41.0 °F 34.0 °F 76% 30.09 in 10.0 mi Calm Calm - N/A   Clear
2:52 AM 42.1 °F 34.0 °F 73% 30.08 in 10.0 mi Calm Calm - N/A   Clear
4:52 AM 48.0 °F 34.0 °F 58% 30.04 in 10.0 mi Calm Calm - N/A   Clear
5:52 AM 45.0 °F 35.1 °F 68% 30.07 in 10.0 mi Calm Calm - N/A   Clear
6:52 AM 48.0 °F 36.0 °F 63% 30.09 in 10.0 mi Calm Calm - N/A   Clear
7:52 AM 54.0 °F 35.1 °F 49% 30.07 in 10.0 mi ENE 3.5 mph - N/A   Clear
8:52 AM 60.1 °F 35.1 °F 39% 30.08 in 10.0 mi Calm Calm - N/A   Clear
9:52 AM 66.9 °F 41.0 °F 39% 30.08 in 10.0 mi WSW 9.2 mph - N/A   Clear
10:52 AM 66.0 °F 52.0 °F 60% 30.08 in 10.0 mi West 8.1 mph - N/A   Clear
11:52 AM 64.9 °F 48.0 °F 54% 30.05 in 10.0 mi West 3.5 mph - N/A   Scattered Clouds
12:52 PM 69.1 °F 51.1 °F 53% 30.02 in 10.0 mi WSW 9.2 mph - N/A   Scattered Clouds
1:52 PM 66.9 °F 44.1 °F 44% 30.00 in 10.0 mi SW 4.6 mph - N/A   Mostly Cloudy
2:52 PM 66.0 °F 51.1 °F 59% 30.00 in 10.0 mi SW 8.1 mph - N/A   Partly Cloudy
3:52 PM 61.0 °F 54.0 °F 78% 30.00 in 10.0 mi WSW 10.4 mph - N/A   Mostly Cloudy
4:15 PM 60.8 °F 53.6 °F 77% 30.01 in 10.0 mi West 6.9 mph - N/A   Mostly Cloudy
4:52 PM 59.0 °F 53.1 °F 81% 30.01 in 10.0 mi WSW 4.6 mph - N/A   Mostly Cloudy
5:52 PM 57.0 °F 51.1 °F 81% 30.01 in 9.0 mi WSW 4.6 mph - N/A   Scattered Clouds
6:06 PM 55.4 °F 51.8 °F 88% 30.01 in 9.0 mi West 3.5 mph - N/A   Mostly Cloudy
6:52 PM 57.0 °F 51.1 °F 81% 30.03 in 10.0 mi SSW 4.6 mph - N/A   Overcast
7:52 PM 57.0 °F 50.0 °F 77% 30.03 in 10.0 mi SSW 4.6 mph - N/A   Overcast
8:52 PM 57.0 °F 51.1 °F 81% 30.04 in 10.0 mi WSW 5.8 mph - N/A   Overcast
9:52 PM 57.0 °F 50.0 °F 77% 30.04 in 10.0 mi SSW 3.5 mph - N/A   Overcast
10:52 PM 57.0 °F 50.0 °F 77% 30.04 in 10.0 mi South 4.6 mph - N/A   Overcast
11:52 PM 57.0 °F 50.0 °F 77% 30.04 in 10.0 mi South 4.6 mph - N/A   Overcast